[[{"header":{"parameterUnit":"m.s-1","parameterCategory":1,"la1":30.2991,"la2":30.254,"lo1":-89.0895,"lo2":-89.0444,"dy":0.0017,"dx":0.0017,"nx":28,"ny":28,"refTime":"2024-03-23T21:00:00:Z","depth":0,"parameterNumber":2,"parameterNumberName":"U-component_of_WINDS"},"data":[0,0,0,0,0,0,0,0,0,0,0,0,0,0,0,0,0,0,0,0,0,0,0,0,0,0,0,0,0,0,0,0,0,0,0,0,0,0,0,0,0,0,0,0,0,0,0,0,0,0,0,0,0,0,0,0,0,0,-5.8313,-5.8312,0,-5.8301,-5.8301,-5.8301,-5.8169,-5.8166,-5.8163,-5.8159,-5.8148,-5.8151,-5.8154,0,0,0,0,0,0,0,0,0,0,0,0,0,-5.8221,-5.8224,-5.8313,-5.8312,-5.8312,-5.8301,-5.8301,-5.8301,-5.817,-5.8166,-5.8162,-5.8158,-5.8147,-5.8151,-5.8154,0,0,0,0,0,0,0,0,0,0,0,0,0,-5.8241,-5.8224,-5.8313,-5.8246,-5.8239,-5.8301,-5.8301,-5.8301,-5.8171,-5.8166,-5.8161,-5.8156,-5.8146,-5.815,-5.8154,-5.828,0,0,-5.8167,-5.8169,0,0,0,0,0,0,0,0,-5.824,-5.8244,-5.8256,-5.825,-5.8243,-5.8231,-5.8265,-5.8294,-5.8172,-5.8197,-5.8159,-5.8154,-5.818,-5.8181,-5.819,-5.8279,-5.8279,-5.8168,-5.817,-5.8172,-5.8173,0,0,0,0,0,0,0,-5.8238,-5.8244,-5.8308,-5.8256,-5.8249,-5.8216,-5.8213,-5.827,-5.8216,-5.8194,-5.8185,-5.8185,-5.8176,-5.8186,-5.8189,-5.8279,-5.8168,-5.8171,-5.8174,-5.8175,-5.8471,-5.8476,0,0,0,0,0,0,-5.8246,-5.8244,-5.8308,-5.8308,-5.8229,-5.8222,-5.8219,-5.824,-5.8215,-5.8207,-5.8189,-5.8179,-5.8181,-5.8184,-5.8188,-5.8333,-5.8172,-5.8176,-5.8178,-5.8465,-5.8472,-5.8477,0,0,0,0,0,0,-5.8245,-5.8253,-5.8309,-5.8273,-5.8278,-5.8229,-5.8254,-5.8243,-5.8253,-5.8212,-5.8202,-5.821,-5.8178,-5.8182,-5.8258,-5.833,-5.8178,-5.8182,-5.8459,-5.8467,-5.8475,-5.8624,0,0,0,0,0,0,-5.8243,-5.8254,-5.8301,-5.8275,-5.828,-5.8379,-5.8259,-5.8246,-5.8261,-5.8247,-5.8228,-5.822,-5.8174,-5.8252,-5.8262,-5.8333,-5.8185,-5.8452,-5.8463,-5.8472,-5.8612,-5.8636,-5.8656,0,0,0,0,0,-5.824,-5.8343,-5.8304,-5.8312,-5.8338,-5.8384,-5.8387,-5.8331,-5.8267,-5.8314,-5.8287,-5.8221,-5.8321,-5.8261,-5.8271,-5.8345,-5.8447,-5.846,-5.8471,-5.8602,-5.8631,-5.8656,0,0,0,0,0,0,-5.8378,-5.8338,-5.8294,-5.8392,-5.8392,-5.8361,-5.8419,-5.8364,-5.8382,-5.8369,-5.8299,-5.8296,-5.8383,-5.8371,-5.8305,-5.8465,-5.8373,-5.8387,-5.8469,-5.8496,-5.8518,-5.8519,-5.8188,0,0,0,0,0,-5.842,-5.8461,-5.8424,-5.8514,-5.8516,-5.8468,-5.8486,-5.8443,-5.8441,-5.844,-5.8419,-5.842,-5.8451,-5.8473,-5.85,-5.861,-5.8604,-5.8666,-5.8688,-5.8706,-5.872,-5.8777,-5.8804,-5.8517,-5.8517,-5.8516,0,0,-5.8507,-5.849,-5.852,-5.8541,-5.8536,-5.858,-5.8469,-5.852,-5.8552,-5.8448,-5.8518,-5.8504,-5.8499,-5.8593,-5.8634,-5.8586,-5.8798,-5.8722,-5.8737,-5.874,-5.8793,-5.882,-5.8844,-5.8525,-5.8523,-5.8522,0,0,-5.8687,-5.8679,-5.8753,-5.8751,-5.8745,-5.8712,-5.873,-5.8708,-5.8694,-5.8764,-5.8687,-5.8724,-5.878,-5.878,-5.8787,-5.897,-5.8909,-5.898,-5.9095,-5.9153,-5.9175,-5.9195,-5.926,-5.9284,-5.8994,-5.8994,-5.8994,0,-5.8796,-5.8858,-5.8798,-5.8854,-5.8866,-5.8774,-5.8849,-5.885,-5.8853,-5.8864,-5.8811,-5.8879,-5.887,-5.8963,-5.9007,-5.9016,-5.9035,-5.8982,-5.9177,-5.9196,-5.9213,-5.9274,-5.9299,-5.9003,-5.9002,-5.9001,-5.9,0,-5.8992,-5.9037,-5.9098,-5.9103,-5.9122,-5.9187,-5.9137,-5.9163,-5.912,-5.9093,-5.9165,-5.9151,-5.9173,-5.9193,-5.915,-5.928,-5.9251,-5.9189,-5.9094,-5.9251,-5.9307,-5.933,-5.9015,-5.9012,-5.901,-5.9007,0,0,-5.9258,-5.923,-5.9253,-5.9255,-5.9243,-5.9276,-5.9338,-5.936,-5.9384,-5.939,-5.9439,-5.9489,-5.9432,-5.9441,-5.9398,-5.9448,-5.9594,-5.9379,-5.9378,-5.942,-5.9735,-5.9782,-5.981,-5.9554,-5.9558,-5.9561,-5.9736,0,-5.9431,-5.9534,-5.9482,-5.9592,-5.9633,-5.9547,-5.9601,-5.9599,-5.9577,-5.9608,-5.9582,-5.9619,-5.954,-5.9545,-5.9591,-5.9566,-5.9656,-5.9553,-5.9599,-5.9602,-5.9602,-5.9839,-5.9888,-6.0053,-5.9757,-5.9761,-5.9764,0,-5.9647,-5.9662,-5.9776,-5.9757,-5.9772,-5.9821,-5.9837,-5.9869,-5.9865,-5.9845,-5.9856,-5.9802,-5.9861,-5.9769,-5.9849,-5.9781,-5.9797,-5.9788,-5.9793,-5.9794,-5.9692,-5.9847,-6.0104,-6.0129,-5.9798,-5.9795,-5.9792,0,-5.9829,-5.9878,-5.9952,-5.9957,-5.9936,-5.9973,-5.9966,-5.9958,-5.9975,-5.9989,-5.9999,-6.0021,-6.0033,-6.0051,-6.0004,-5.9941,-6.0091,-5.9995,-6.0076,-6.0078,-6.0111,-6.0109,-6.0374,-6.0123,-6.0123,-6.0122,-6.0122,0,-6.0027,-6.01,-6.0034,-6.008,-6.0159,-6.0099,-6.018,-6.0164,-6.0158,-6.0199,-6.0127,-6.0167,-6.0103,-6.0137,-6.0101,-6.0174,-6.018,-6.0165,-6.0155,-6.0171,-6.0173,-6.018,-6.0167,-6.0129,-6.0127,-6.0126,-6.0125,0,-6.0243,-6.0202,-6.0277,-6.0252,-6.0248,-6.0307,-6.0285,-6.0327,-6.03,-6.0353,-6.0362,-6.0319,-6.0356,-6.0312,-6.0344,-6.032,-6.0419,-6.0391,-6.042,-6.0412,-6.0495,-6.0488,-6.0773,-6.0807,-6.0535,-6.0538,-6.054,0,-6.0372,-6.0426,-6.0407,-6.043,-6.0427,-6.0465,-6.0482,-6.0425,-6.0446,-6.0447,-6.0489,-6.0519,-6.0541,-6.0604,-6.0576,-6.0601,-6.0573,-6.0671,-6.0576,-6.0591,-6.0574,-6.0571,-6.0576,-6.069,-6.0694,-6.0696,-6.0699,0,-6.0605,-6.0583,-6.061,-6.0631,-6.0653,-6.0666,-6.0674,-6.0697,-6.0638,-6.0665,-6.0702,-6.0719,-6.0752,-6.0784,-6.0801,-6.0794,-6.0737,-6.0729,-6.0749,-6.0766,-6.078,-6.0773,-6.0472,-6.0722,-6.072,-6.0718,-6.0717,-6.0716,-6.0781,-6.0825,-6.0819,-6.0852,-6.0852,-6.0862,-6.09,-6.0877,-6.0907,-6.093,-6.0895,-6.0941,-6.0938,-6.0955,-6.0955,-6.099,-6.0948,-6.0977,-6.0984,-6.0992,-6.1005,-6.0776,-6.0993,-6.0993,-6.0992,-6.0991,-6.0991,0,-6.101,-6.1002,-6.1033,-6.1047,-6.1073,-6.1017,-6.1024,-6.1049,-6.1091,-6.1092,-6.1115,-6.1158,-6.1188,-6.1163,-6.1189,-6.1222,-6.1197,-6.1231,-6.1227,-6.1226,-6.1041,-6.1021,-6.1251,-6.1251,-6.1251,-6.1251,-6.1251,-6.1251,-6.1132,-6.1204,-6.1181,-6.1253,-6.1244,-6.1289,-6.1297,-6.1306,-6.1306,-6.1357,-6.1382,-6.1366,-6.1357,-6.1381,-6.1407,-6.1399,-6.1411,-6.1455,-6.1438,-6.1265,-6.1239,-6.1215,-6.1196,-6.1458,-6.1459,-6.1619,-6.1621,-6.1622]},{"header":{"parameterUnit":"m.s-1","parameterCategory":1,"la1":30.2991,"la2":30.254,"lo1":-89.0895,"lo2":-89.0444,"dy":0.0017,"dx":0.0017,"nx":28,"ny":28,"refTime":"2024-03-23T21:00:00:Z","depth":0,"parameterNumber":3,"parameterNumberName":"V-component_of_WINDS"},"data":[0,0,0,0,0,0,0,0,0,0,0,0,0,0,0,0,0,0,0,0,0,0,0,0,0,0,0,0,0,0,0,0,0,0,0,0,0,0,0,0,0,0,0,0,0,0,0,0,0,0,0,0,0,0,0,0,0,0,0.5246,0.5245,0,0.5228,0.5228,0.5227,0.5224,0.5224,0.5224,0.5225,0.5205,0.5205,0.5204,0,0,0,0,0,0,0,0,0,0,0,0,0,0.5278,0.5277,0.5246,0.5245,0.5245,0.5228,0.5228,0.5227,0.5224,0.5224,0.5224,0.5225,0.5206,0.5205,0.5204,0,0,0,0,0,0,0,0,0,0,0,0,0,0.5262,0.5277,0.5246,0.5242,0.5241,0.5228,0.5228,0.5227,0.5224,0.5224,0.5224,0.5225,0.5206,0.5205,0.5204,0.5194,0,0,0.5201,0.5201,0,0,0,0,0,0,0,0,0.5263,0.5261,0.5242,0.5242,0.5241,0.5228,0.5232,0.5216,0.5224,0.523,0.5225,0.5225,0.5213,0.5211,0.5207,0.5193,0.5192,0.5201,0.52,0.52,0.52,0,0,0,0,0,0,0,0.5264,0.5262,0.5239,0.5242,0.5241,0.5241,0.5239,0.5229,0.5221,0.523,0.523,0.5228,0.5213,0.5208,0.5207,0.5192,0.5201,0.52,0.52,0.5199,0.5169,0.5169,0,0,0,0,0,0,0.5266,0.5263,0.5239,0.5238,0.5253,0.524,0.5238,0.5232,0.5221,0.5219,0.5227,0.5227,0.521,0.5208,0.5206,0.5194,0.52,0.5199,0.5199,0.5169,0.5169,0.5169,0,0,0,0,0,0,0.5267,0.5264,0.524,0.525,0.5247,0.5239,0.5233,0.5232,0.5228,0.5219,0.5217,0.5225,0.521,0.5208,0.5197,0.5193,0.5199,0.5198,0.517,0.5169,0.5169,0.5169,0,0,0,0,0,0,0.5267,0.5264,0.526,0.525,0.5247,0.5231,0.5233,0.5231,0.5226,0.5226,0.5216,0.5214,0.521,0.5199,0.5196,0.5192,0.5197,0.517,0.5169,0.5169,0.517,0.5169,0.5169,0,0,0,0,0,0.5269,0.526,0.526,0.5257,0.5241,0.5231,0.5229,0.5224,0.5226,0.5222,0.5216,0.5215,0.5194,0.5198,0.5195,0.519,0.517,0.517,0.5169,0.517,0.5169,0.5169,0,0,0,0,0,0,0.5269,0.5259,0.5258,0.5246,0.5239,0.523,0.5224,0.5223,0.5215,0.5216,0.521,0.5208,0.5198,0.5193,0.5197,0.5181,0.5182,0.5181,0.5184,0.5183,0.5183,0.5184,0.5196,0,0,0,0,0,0.5267,0.526,0.5251,0.5242,0.5239,0.5232,0.5227,0.5225,0.5217,0.5214,0.5208,0.5201,0.5193,0.5188,0.518,0.5169,0.5167,0.5165,0.5165,0.5164,0.5163,0.5158,0.5157,0.5167,0.5167,0.5167,0,0,0.5264,0.5258,0.5253,0.5242,0.5236,0.5229,0.523,0.5221,0.5216,0.5213,0.5203,0.5198,0.519,0.518,0.5175,0.5175,0.516,0.5164,0.5163,0.5163,0.5158,0.5157,0.5156,0.5167,0.5167,0.5167,0,0,0.5255,0.5249,0.5241,0.5236,0.5228,0.5224,0.5222,0.5214,0.5211,0.5201,0.5199,0.5193,0.5179,0.5173,0.5169,0.516,0.5158,0.5158,0.5155,0.515,0.5149,0.5148,0.5146,0.5145,0.5157,0.5157,0.5157,0,0.5252,0.5241,0.5237,0.5229,0.5225,0.5223,0.5215,0.521,0.52,0.5197,0.5198,0.5182,0.5176,0.5165,0.5163,0.5159,0.5157,0.5158,0.515,0.5149,0.5148,0.5145,0.5144,0.5157,0.5157,0.5157,0.5157,0,0.5238,0.5231,0.5225,0.5216,0.5211,0.5203,0.5198,0.5194,0.5192,0.5188,0.5179,0.5172,0.5164,0.5161,0.5159,0.515,0.5151,0.5151,0.5152,0.5147,0.5145,0.5144,0.5157,0.5157,0.5157,0.5157,0,0,0.5227,0.5218,0.5216,0.5212,0.5204,0.5198,0.5191,0.5183,0.5179,0.5173,0.5167,0.5156,0.5157,0.5152,0.5149,0.5145,0.5139,0.5146,0.5145,0.5145,0.513,0.513,0.5129,0.5139,0.5138,0.5138,0.5131,0,0.5217,0.5204,0.5201,0.519,0.5183,0.5183,0.5176,0.5171,0.5168,0.5162,0.5158,0.5151,0.5152,0.5149,0.5145,0.5141,0.5136,0.5141,0.5133,0.5133,0.5135,0.5127,0.5127,0.512,0.513,0.513,0.5129,0,0.5203,0.5197,0.5186,0.518,0.5177,0.5172,0.5165,0.5159,0.5154,0.5152,0.5147,0.5145,0.5138,0.5141,0.5131,0.5135,0.5132,0.5129,0.5129,0.5128,0.5131,0.5126,0.5118,0.5117,0.5128,0.5128,0.5128,0,0.5197,0.5186,0.5178,0.5175,0.5168,0.5164,0.5161,0.5156,0.5152,0.5146,0.5144,0.5137,0.5134,0.5129,0.5126,0.5128,0.5117,0.5119,0.5115,0.5115,0.5112,0.5112,0.5103,0.511,0.511,0.511,0.511,0,0.5186,0.5179,0.5175,0.517,0.5163,0.516,0.5153,0.515,0.5146,0.514,0.5139,0.5134,0.513,0.5125,0.5123,0.5116,0.5114,0.5112,0.5112,0.5112,0.5113,0.511,0.511,0.511,0.511,0.511,0.511,0,0.5177,0.5174,0.5166,0.516,0.5159,0.5154,0.5149,0.5145,0.5142,0.5136,0.5134,0.513,0.5124,0.512,0.5112,0.5111,0.5103,0.5103,0.5105,0.5105,0.5102,0.5102,0.509,0.5089,0.5097,0.5097,0.5097,0,0.517,0.5165,0.516,0.5156,0.5153,0.5148,0.5144,0.5142,0.5138,0.5133,0.5129,0.5123,0.5118,0.5108,0.5105,0.5099,0.5098,0.5095,0.5097,0.5099,0.5099,0.5099,0.5099,0.5094,0.5094,0.5094,0.5094,0,0.5158,0.5158,0.5153,0.5148,0.5144,0.5139,0.5135,0.5132,0.513,0.5126,0.512,0.5116,0.5109,0.5103,0.5098,0.5094,0.5094,0.5093,0.5092,0.5093,0.5095,0.5094,0.5104,0.5093,0.5094,0.5094,0.5094,0.5094,0.5151,0.5146,0.5142,0.5137,0.5134,0.5131,0.5127,0.5124,0.5119,0.5113,0.5113,0.5107,0.5103,0.5095,0.5092,0.5087,0.5088,0.5086,0.5086,0.5086,0.5086,0.5096,0.5086,0.5086,0.5086,0.5086,0.5086,0,0.5139,0.5137,0.5132,0.5127,0.5123,0.5124,0.512,0.5116,0.5111,0.5108,0.5103,0.5097,0.5092,0.5089,0.5084,0.5081,0.5081,0.508,0.508,0.5079,0.5085,0.5087,0.508,0.508,0.508,0.508,0.508,0.508,0.5133,0.5126,0.5125,0.5117,0.5115,0.511,0.5108,0.5105,0.5102,0.5095,0.5091,0.509,0.5086,0.5081,0.5077,0.5076,0.5074,0.5073,0.5073,0.5078,0.5079,0.5079,0.5081,0.5073,0.5073,0.5067,0.5067,0.5067]}]]